Date String (YYYY-MM-DD hh:mm:ss) UTC,Instrument flags,Ambient pressure (hPa),Sample flow (lpm),Bypass flow (lpm),Sample temperature (°C),Ambient temperature (°C),ASC tube jacket temperature (°C),LED temperature (°C),Box temperature (°C),Sample RH (%),Span deviation,Mass concentration (μg/m³),Mass concentration (μg/m³),Mass concentration (μg/m³)
DateTimeUTC,F1_M11,P_M11,Q1_M11,Q2_M11,T1_M11,T2_M11,T3_M11,T4_M11,T5_M11,U1_M11,ZSPAN_M11,X0_M11,X2_M11,X1_M11
2022-02-24 02:00:00,,0823.1,5.02,0.00,22.5,21.4,00.0,31.5,24.2,04.9,0000.8,0009.30,0005.95,0005.55
2022-02-24 02:01:00,,0823.1,5.00,0.00,22.5,21.3,00.0,31.5,24.1,04.9,0000.0,0009.27,0005.92,0005.51
2022-02-24 02:02:00,,0823.1,5.00,0.00,22.4,21.5,00.0,31.5,24.1,04.9,0000.0,0009.35,0005.92,0005.46
2022-02-24 02:03:00,,0823.1,4.99,0.00,22.5,22.2,00.0,31.5,24.3,04.8,0000.0,0009.31,0005.88,0005.40
2022-02-24 02:04:00,,0823.0,5.02,0.00,22.6,23.0,00.0,31.6,24.5,04.8,0000.0,0009.15,0005.80,0005.34
2022-02-24 02:05:00,,0822.9,4.99,0.00,22.7,23.1,00.0,31.6,24.7,04.8,0000.0,0009.03,0005.75,0005.28
2022-02-24 02:06:00,,0822.9,5.01,0.00,22.7,22.7,00.0,31.6,24.6,04.8,0000.0,0008.98,0005.73,0005.23
2022-02-24 02:07:00,,0822.9,4.99,0.00,22.7,22.4,00.0,31.6,24.5,04.8,0000.0,0008.92,0005.70,0005.21
2022-02-24 02:08:00,,0823.0,5.01,0.00,22.7,22.1,00.0,31.6,24.5,04.8,0000.0,0008.94,0005.69,0005.19
2022-02-24 02:09:00,,0822.9,5.00,0.00,22.6,21.9,00.0,31.6,24.4,04.8,0000.0,0009.19,0005.67,0005.17
2022-02-24 02:10:00,,0822.7,5.00,0.00,22.6,21.8,00.0,31.6,24.3,04.8,0000.0,0009.43,0005.68,0005.16
2022-02-24 02:11:00,,0822.7,5.00,0.00,22.6,21.6,00.0,31.5,24.2,04.8,0000.0,0009.16,0005.66,0005.13
2022-02-24 02:12:00,,0822.7,5.00,0.00,22.5,21.5,00.0,31.5,24.2,04.8,0000.0,0009.02,0005.61,0005.12
2022-02-24 02:13:00,,0822.9,5.01,0.00,22.5,21.4,00.0,31.5,24.1,04.8,0000.0,0008.91,0005.56,0005.11
2022-02-24 02:14:00,,0823.0,4.99,0.00,22.5,21.8,00.0,31.5,24.2,04.8,0000.0,0008.85,0005.55,0005.11
2022-02-24 02:15:00,,0823.1,4.99,0.00,22.6,22.6,00.0,31.6,24.4,04.8,0000.0,0008.81,0005.51,0005.09
2022-02-24 02:16:00,,0823.2,5.02,0.00,22.7,23.2,00.0,31.6,24.6,04.8,0000.0,0009.48,0005.47,0005.07
2022-02-24 02:17:00,,0823.2,4.99,0.00,22.8,23.1,00.0,31.6,24.7,04.8,0000.0,0009.51,0005.44,0005.08
2022-02-24 02:18:00,,0823.1,5.02,0.00,22.8,22.8,00.0,31.6,24.7,04.8,0000.0,0009.76,0005.43,0005.08
2022-02-24 02:19:00,,0823.2,5.00,0.00,22.8,22.5,00.0,31.6,24.6,04.8,0000.0,0010.31,0005.44,0005.08
2022-02-24 02:20:00,,0823.2,5.00,0.00,22.7,22.3,00.0,31.6,24.5,04.8,0000.0,0010.05,0005.46,0005.09
2022-02-24 02:21:00,,0823.3,4.99,0.00,22.7,22.1,00.0,31.6,24.4,04.8,0000.0,0009.82,0005.45,0005.10
2022-02-24 02:22:00,,0823.2,5.00,0.00,22.7,22.0,00.0,31.6,24.4,04.8,0000.0,0009.91,0005.49,0005.12
2022-02-24 02:23:00,,0823.0,5.00,0.00,22.6,21.9,00.0,31.6,24.3,04.8,0000.0,0009.96,0005.53,0005.15
2022-02-24 02:24:00,,0822.9,5.00,0.00,22.6,21.8,00.0,31.6,24.3,04.8,0000.0,0009.99,0005.56,0005.18
2022-02-24 02:25:00,,0823.0,5.01,0.00,22.5,21.7,00.0,31.5,24.2,04.8,0000.0,0010.07,0005.60,0005.22
2022-02-24 02:26:00,,0823.2,5.00,0.00,22.5,21.6,00.0,31.5,24.2,04.9,0000.0,0010.14,0005.65,0005.25
2022-02-24 02:27:00,,0823.3,5.00,0.00,22.5,21.7,00.0,31.5,24.1,04.9,0000.4,0009.44,0005.69,0005.28
2022-02-24 02:28:00,,0823.3,5.01,0.00,22.5,22.3,00.0,31.6,24.3,04.8,0000.5,0009.35,0005.72,0005.30
2022-02-24 02:29:00,,0823.4,5.00,0.00,22.7,23.0,00.0,31.6,24.5,04.8,0002.2,0008.98,0005.72,0005.31
2022-02-24 02:30:00,,0823.3,5.00,0.00,22.8,23.2,00.0,31.6,24.7,04.8,0000.5,0008.51,0005.74,0005.31
2022-02-24 02:31:00,,0823.4,5.01,0.00,22.8,22.9,00.0,31.6,24.7,04.8,0001.4,0008.43,0005.75,0005.33
2022-02-24 02:32:00,,0823.4,4.98,0.00,22.8,22.6,00.0,31.6,24.6,04.8,0001.7,0008.39,0005.74,0005.34
2022-02-24 02:33:00,,0823.2,5.01,0.00,22.7,22.3,00.0,31.6,24.5,04.8,0000.0,0008.52,0005.76,0005.35
2022-02-24 02:34:00,,0823.2,5.00,0.00,22.7,22.2,00.0,31.6,24.4,04.8,0000.0,0008.63,0005.76,0005.34
2022-02-24 02:35:00,,0823.2,4.99,0.00,22.7,22.0,00.0,31.6,24.4,04.8,0002.3,0008.82,0005.73,0005.31
2022-02-24 02:36:00,,0823.3,5.00,0.00,22.6,21.9,00.0,31.6,24.3,04.8,0004.3,0009.36,0005.73,0005.30
2022-02-24 02:37:00,,0823.2,5.00,0.00,22.6,21.7,00.0,31.6,24.3,04.8,0004.4,0009.40,0005.73,0005.30
2022-02-24 02:38:00,,0823.2,5.00,0.00,22.5,21.7,00.0,31.6,24.2,04.8,0002.6,0009.42,0005.72,0005.29
2022-02-24 02:39:00,,0823.1,5.00,0.00,22.5,21.6,00.0,31.5,24.2,04.8,0003.8,0009.42,0005.70,0005.27
2022-02-24 02:40:00,,0823.1,5.01,0.00,22.5,21.6,00.0,31.5,24.1,04.8,0003.1,0009.41,0005.67,0005.26
2022-02-24 02:41:00,,0823.0,4.98,0.00,22.5,22.1,00.0,31.5,24.2,04.8,0003.0,0009.32,0005.65,0005.25
2022-02-24 02:42:00,,0823.1,5.02,0.00,22.6,22.8,00.0,31.6,24.5,04.8,0002.7,0009.46,0005.63,0005.24
2022-02-24 02:43:00,,0823.1,5.00,0.00,22.7,23.2,00.0,31.6,24.7,04.7,0002.4,0009.61,0005.64,0005.23
2022-02-24 02:44:00,,0823.1,4.99,0.00,22.8,22.9,00.0,31.6,24.7,04.7,0002.1,0009.47,0005.61,0005.22
2022-02-24 02:45:00,,0823.1,5.01,0.00,22.8,22.7,00.0,31.6,24.6,04.7,0002.7,0009.46,0005.60,0005.22
2022-02-24 02:46:00,,0823.1,5.00,0.00,22.7,22.5,00.0,31.6,24.5,04.7,0002.0,0009.45,0005.60,0005.21
2022-02-24 02:47:00,,0822.8,5.00,0.00,22.7,22.3,00.0,31.6,24.5,04.7,0001.0,0008.85,0005.58,0005.21
2022-02-24 02:48:00,,0822.6,5.01,0.00,22.6,22.1,00.0,31.6,24.4,04.7,0000.7,0008.81,0005.57,0005.18
2022-02-24 02:49:00,,0822.6,5.01,0.00,22.6,21.9,00.0,31.6,24.3,04.8,0000.6,0009.14,0005.59,0005.19
2022-02-24 02:50:00,,0822.6,5.00,0.00,22.6,21.8,00.0,31.6,24.2,04.8,0000.2,0010.05,0005.60,0005.19
2022-02-24 02:51:00,,0822.6,4.99,0.00,22.5,21.7,00.0,31.6,24.2,04.8,0000.0,0010.98,0005.61,0005.18
2022-02-24 02:52:00,,0822.6,5.00,0.00,22.5,21.6,00.0,31.5,24.1,04.8,0000.0,0011.07,0005.63,0005.17
2022-02-24 02:53:00,,0822.6,5.00,0.00,22.4,21.6,00.0,31.5,24.1,04.8,0000.0,0010.97,0005.64,0005.16
2022-02-24 02:54:00,,0822.6,4.99,0.00,22.5,22.2,00.0,31.6,24.2,04.8,0000.0,0010.86,0005.65,0005.16
2022-02-24 02:55:00,,0822.7,5.00,0.00,22.6,22.9,00.0,31.6,24.5,04.8,0000.0,0011.01,0005.64,0005.15
2022-02-24 02:56:00,,0822.9,5.01,0.00,22.7,23.2,00.0,31.6,24.6,04.7,0000.0,0011.56,0005.67,0005.13
2022-02-24 02:57:00,,0823.0,4.99,0.00,22.7,22.9,00.0,31.6,24.6,04.7,0000.0,0011.35,0005.64,0005.12
2022-02-24 02:58:00,,0823.1,5.00,0.00,22.7,22.6,00.0,31.6,24.6,04.7,0000.0,0011.41,0005.65,0005.12
2022-02-24 02:59:00,,0823.0,5.00,0.00,22.7,22.4,00.0,31.6,24.5,04.7,0000.0,0011.46,0005.67,0005.13
